AirNav   Duncan Aviation - Near you to keep you flying
 
 751 users online  

KGRE Greenville Airport
Greenville, Illinois, USA

GOING TO GREENVILLE?


FAA INFORMATION EFFECTIVE 14 JULY 2022

Location

FAA Identifier: GRE
Lat/Long: 38-50-10.4000N 089-22-44.0000W
38-50.173333N 089-22.733333W
38.8362222,-89.3788889
(estimated)
Elevation: 540.8 ft. / 164.8 m (surveyed)
Variation: 02W (2020)
From city: 3 miles S of GREENVILLE, IL
Time zone: UTC -5 (UTC -6 during Standard Time)
Zip code: 62246

Airport Operations

Airport use: Open to the public
Control tower: no
ARTCC: KANSAS CITY CENTER
FSS: SAINT LOUIS FLIGHT SERVICE STATION
NOTAMs facility: STL (NOTAM-D service available)
Attendance: 0730-1700
Pattern altitude: 1340.8 ft. MSL
Wind indicator: lighted
Segmented circle: no
Lights: MIRL RY 18/36 PRESET ON MED INTST; TO INCR INTST ACTVT - CTAF.
Beacon: white-green (lighted land airport)
Operates sunset to sunrise.

Airport Communications

CTAF/UNICOM: 123.05
WX AWOS-AV: 123.05 (618-664-1939)
WX AWOS-AV at VLA (14 nm NE): 122.8 (618-283-9595)
  • APCH/DEP SVC PRVDD BY KANSAS CITY ARTCC ON FREQS 127.7/351.825 (MOUNT VERNON RCAG)

Nearby radio navigation aids

VOR radial/distance  VOR name  Freq  Var
VLAr209/18.5VANDALIA VOR/DME114.3004E
TOYr073/25.9TROY VORTAC116.0004E
ENLr334/27.0CENTRALIA VORTAC115.0004E

 
NDB name  Hdg/Dist  Freq  Var  ID
CIVIC MEMORIAL097/31.826301WCVM -.-. ...- --

Airport Services

Fuel available: 100LL JET-A
Parking: hangars and tiedowns
Airframe service: NONE
Powerplant service: NONE
Bottled oxygen: NONE
Bulk oxygen: NONE

Runway Information

Runway 18/36

Dimensions: 4002 x 75 ft. / 1220 x 23 m
Surface: asphalt, in good condition
Weight bearing capacity: 
Single wheel: 7.5
Runway edge lights: medium intensity
RUNWAY 18  RUNWAY 36
Latitude: 38-50.470900N38-49.811675N
Longitude: 089-22.587583W089-22.583670W
Elevation: 540.1 ft.531.7 ft.
Traffic pattern: leftleft
Runway heading: 181 magnetic, 179 true001 magnetic, 359 true
Markings: nonprecision, in fair conditionnonprecision, in fair condition
Visual slope indicator: pulsating/steady burning VASI on left (3.00 degrees glide path)
Runway end identifier lights: yesyes
Touchdown point: yes, no lightsyes, no lights

Runway 9/27

Dimensions: 2822 x 250 ft. / 860 x 76 m
Surface: turf, in good condition
RUNWAY 9  RUNWAY 27
Latitude: 38-50.222495N38-50.218163N
Longitude: 089-23.238852W089-22.644395W
Elevation: 537.9 ft.537.7 ft.
Traffic pattern: leftleft
Runway heading: 092 magnetic, 090 true272 magnetic, 270 true
Touchdown point: yes, no lightsyes, no lights

Airport Ownership and Management from official FAA records

Ownership: Publicly-owned
Owner: THE GREENVILLE ARPT AUTHORITY
1374 SKY LANE
GREENVILLE, IL 62246
Phone 618-664-0926
Manager: LARRY KLEINER
1374 SKY LANE
GREENVILLE, IL 62246
Phone 618-664-0926
OR 618-664-3272

Airport Operational Statistics

Aircraft based on the field: 37
Single engine airplanes: 36
Multi engine airplanes: 1
    
Aircraft operations: avg 68/day *
80% local general aviation
8% transient general aviation
8% air taxi
4% military
* for 12-month period ending 31 May 2021

Additional Remarks

INTENSIVE PARACHUTE OPS.
AWOS 3 CLICKS ON CTAF.
DOOR CODE FOR BUILDING ENTRY IS CTAF, THEN #
FOR CD CTC KANSAS CITY ARTCC AT 913-254-8508.

Instrument Procedures

NOTE: All procedures below are presented as PDF files. If you need a reader for these files, you should download the free Adobe Reader.

NOT FOR NAVIGATION. Please procure official charts for flight.
FAA instrument procedures published for use from 14 July 2022 at 0901Z to 11 August 2022 at 0900z.

 
IAPs - Instrument Approach Procedures
RNAV (GPS) RWY 18   download (236KB)
RNAV (GPS) RWY 36   download (242KB)
VOR-A   download (180KB)
NOTE: Special Take-Off Minimums/Departure Procedures apply   download (201KB)

Other nearby airports with instrument procedures:

KVLA - Vandalia Municipal Airport (14 nm NE)
KSLO - Salem-Leckrone Airport (23 nm SE)
KENL - Centralia Municipal Airport (24 nm SE)
3LF - Litchfield Municipal Airport (24 nm NW)
KBLV - Scott Air Force Base/MidAmerica Airport (28 nm SW)
 
Loc | Ops | Rwys | IFR | FBO | Links
Com | Nav | Svcs | Stats | Notes
Area around KGRE (Greenville Airport)
 
Road maps at: MapQuest Bing Google
 
Aerial photo
WARNING: Photo may not be current or correct
Aerial photo of KGRE (Greenville Airport)
Photo courtesy of Cardinal Aviation Services Aerial Photography

Do you have a better or more recent aerial photo of Greenville Airport that you would like to share? If so, please send us your photo.

 
Sectional chart

 
Airport distance calculator
Flying to Greenville Airport? Find the distance to fly.

From to KGRE

Sunrise and sunset
Times for 10-Aug-2022
 Local
(UTC-5)
 Zulu
(UTC)
Morning civil twilight05:3910:39
Sunrise06:0811:08
Sunset19:5800:58
Evening civil twilight20:2701:27

Current date and time
Zulu (UTC)  10-Aug-2022 10:58:06
Local (UTC-5)  10-Aug-2022 05:58:06
 
METAR
KSLO 
22nm SE 
101035Z AUTO 02004KT 10SM SCT028 SCT040 21/20 A3013 RMK AO2 T02050202
KENL 
23nm SE 
101035Z AUTO 00000KT 10SM SCT022 OVC049 20/20 A3012 RMK AO2 T02030203
K3LF 
24nm NW 
101035Z AUTO 00000KT 5SM BR CLR 18/18 A3015 RMK AO2 T01780177
KBLV 
28nm SW 
101041Z AUTO 36003KT 10SM BKN028 BKN055 20/19 A3012 RMK AO2 CIG 028V055 BKN028 V SCT SLP200 CHINO RWY14R $
KALN 
31nm W 
101035Z AUTO 00000KT 4SM BR SCT042 18/18 A3015 RMK AO2 T01810178
KMVN 
39nm SE 
100956Z AUTO 02004KT 10SM OVC043 21/21 A3011 RMK AO2 SLP198 T02060206
KCPS 
40nm SW 
101053Z AUTO 00000KT 1 3/4SM BR CLR 18/18 A3014 RMK AO2 VIS 1V5 SLP202 T01830183 TSNO
K1H2 
42nm E 
101035Z AUTO 00000KT 10SM OVC043 18/17 A3015 RMK AO2 T01840172
KTAZ 
42nm N 
101035Z AUTO 02004KT 10SM CLR 16/15 A3015 RMK AO2 T01550150
KSAR 
44nm S 
101035Z AUTO 00000KT 10SM BKN043 OVC075 20/20 A3013 RMK AO2 T02040203
TAF
KBLV 
28nm SW 
100800Z 1008/1114 03006KT 9999 SCT200 QNH3010INS BECMG 1020/1021 03009KT 9999 SKC QNH3008INS TX28/1020Z TN17/1008Z
NOTAMs
Click for the latest NOTAMs
NOTAMs are issued by the DoD/FAA and will open in a separate window not controlled by AirNav.

 

 
 

FBO, Fuel Providers, and Aircraft Ground Support

  
 Business Name 
 
 Contact 
 
 Services / Description 
 
Fuel Prices
 
Comments
  
Greenville Airport 618-664-0926
[email]
Airport management, Aviation fuel, Aircraft parking (ramp or tiedown), Hangars, Hangar leasing / sales, Passenger terminal and lounge, Flight training, ...

More info about Greenville Airport
Phillips 66
100LL Jet A
AS $6.85 $5.50 
 Updated 01-Jul-2022
 
   write
AS=Assisted/Self Service
Update Fuel Prices
 

Would you like to see your business listed on this page?

 If your business provides an interesting product or service to pilots, flight crews, aircraft, or users of the Greenville Airport, you should consider listing it here.  To start the listing process, click on the button below
 
Add a business
 

Other Pages about Greenville Airport

Update a link
 
Copyright © AirNav, LLC. All rights reserved. Privacy Policy  Contact